| time (UTC) | temp F | wind direction | speed MPH | gust MPH | rain 1hr in | rain 24hr in | rain mn in | humidity % | barometer mb |
| 20260510152638 | 76 | 307 | 0.0 | 1.0 | 0.00 | 0.00 | 0.00 | 53 | 1013.6 |
| 20260510152138 | 75 | 0 | 0.0 | 1.0 | 0.00 | 0.00 | 0.00 | 49 | 1013.6 |
| 20260510151638 | 75 | 0 | 1.0 | 2.0 | 0.00 | 0.00 | 0.00 | 55 | 1013.7 |
| 20260510151138 | 75 | 24 | 1.0 | 2.0 | 0.00 | 0.00 | 0.00 | 54 | 1013.8 |
| 20260510150903 | 75 | 93 | 1.0 | 2.0 | 0.00 | 0.00 | 0.00 | 55 | 1013.8 |
| 20260510150138 | 75 | 40 | 1.0 | 2.0 | 0.00 | 0.00 | 0.00 | 55 | 1013.8 |
| 20260510145638 | 74 | 0 | 1.0 | 2.0 | 0.00 | 0.00 | 0.00 | 56 | 1013.7 |
| 20260510145401 | 74 | 23 | 1.0 | 2.0 | 0.00 | 0.00 | 0.00 | 56 | 1013.7 |
| 20260510144138 | 73 | 193 | 1.0 | 2.0 | 0.00 | 0.00 | 0.00 | 57 | 1013.7 |
| 20260510143638 | 73 | 261 | 1.0 | 2.0 | 0.00 | 0.00 | 0.00 | 57 | 1013.6 |
| 20260510143138 | 72 | 67 | 1.0 | 2.0 | 0.00 | 0.00 | 0.00 | 58 | 1013.6 |
| 20260510142829 | 72 | 181 | 0.0 | 1.0 | 0.00 | 0.00 | 0.00 | 58 | 1013.6 |
| 20260510142111 | 71 | 95 | 0.0 | 2.0 | 0.00 | 0.00 | 0.00 | 58 | 1013.6 |
| 20260510141611 | 71 | 79 | 0.0 | 2.0 | 0.00 | 0.00 | 0.00 | 63 | 1013.5 |
| 20260510141110 | 70 | 0 | 0.0 | 0.0 | 0.00 | 0.00 | 0.00 | 62 | 1013.4 |
| 20260510140610 | 70 | 0 | 0.0 | 1.0 | 0.00 | 0.00 | 0.00 | 62 | 1013.4 |
| 20260510135610 | 69 | 0 | 0.0 | 1.0 | 0.00 | 0.00 | 0.00 | 66 | 1013.5 |
| 20260510135110 | 69 | 0 | 0.0 | 1.0 | 0.00 | 0.00 | 0.00 | 67 | 1013.5 |
| 20260510134610 | 69 | 0 | 0.0 | 1.0 | 0.00 | 0.00 | 0.00 | 67 | 1013.4 |
| 20260510134111 | 68 | 0 | 0.0 | 1.0 | 0.00 | 0.00 | 0.00 | 70 | 1013.4 |
| 20260510133610 | 68 | 0 | 0.0 | 0.0 | 0.00 | 0.00 | 0.00 | 70 | 1013.4 |
| 20260510133110 | 67 | 0 | 0.0 | 0.0 | 0.00 | 0.00 | 0.00 | 72 | 1013.5 |
| 20260510132610 | 67 | 0 | 0.0 | 0.0 | 0.00 | 0.00 | 0.00 | 71 | 1013.6 |
| 20260510132111 | 66 | 0 | 0.0 | 1.0 | 0.00 | 0.00 | 0.00 | 72 | 1013.7 |
| 20260510131556 | 66 | 0 | 0.0 | 1.0 | 0.00 | 0.00 | 0.00 | 76 | 1013.7 |
| 20260510131056 | 65 | 0 | 0.0 | 1.0 | 0.00 | 0.00 | 0.00 | 76 | 1013.6 |
| 20260510130556 | 65 | 0 | 0.0 | 1.0 | 0.00 | 0.00 | 0.00 | 78 | 1013.5 |
| 20260510125557 | 63 | 0 | 0.0 | 1.0 | 0.00 | 0.00 | 0.00 | 85 | 1013.3 |
| 20260510125056 | 62 | 0 | 0.0 | 1.0 | 0.00 | 0.00 | 0.00 | 87 | 1013.4 |
| 20260510124540 | 62 | 0 | 0.0 | 0.0 | 0.00 | 0.00 | 0.00 | 87 | 1013.3 |
| 20260510124257 | 61 | 0 | 0.0 | 1.0 | 0.00 | 0.00 | 0.00 | 89 | 1013.3 |
| 20260510123540 | 60 | 0 | 0.0 | 1.0 | 0.00 | 0.00 | 0.00 | 91 | 1013.3 |
| 20260510123040 | 59 | 0 | 0.0 | 0.0 | 0.00 | 0.00 | 0.00 | 94 | 1013.3 |
| 20260510122540 | 59 | 0 | 0.0 | 1.0 | 0.00 | 0.00 | 0.00 | 95 | 1013.2 |
| 20260510122041 | 58 | 103 | 0.0 | 1.0 | 0.00 | 0.00 | 0.00 | 96 | 1013.1 |
| 20260510121540 | 58 | 0 | 0.0 | 1.0 | 0.00 | 0.00 | 0.00 | 96 | 1013.0 |
| 20260510121027 | 57 | 0 | 0.0 | 2.0 | 0.00 | 0.00 | 0.00 | 96 | 1012.9 |
| 20260510120749 | 57 | 0 | 0.0 | 2.0 | 0.00 | 0.00 | 0.00 | 95 | 1012.9 |
| 20260510120248 | 56 | 52 | 0.0 | 1.0 | 0.00 | 0.00 | 0.00 | 96 | 1012.9 |
| 20260510115527 | 56 | 59 | 0.0 | 1.0 | 0.00 | 0.00 | 0.00 | 96 | 1012.8 |
| 20260510115027 | 55 | 61 | 0.0 | 1.0 | 0.00 | 0.00 | 0.00 | 96 | 1012.8 |
| 20260510114527 | 55 | 0 | 0.0 | 1.0 | 0.00 | 0.00 | 0.00 | 96 | 1012.7 |
| 20260510114027 | 55 | 0 | 0.0 | 1.0 | 0.00 | 0.00 | 0.00 | 96 | 1012.7 |
| 20260510113528 | 54 | 49 | 0.0 | 1.0 | 0.00 | 0.00 | 0.00 | 96 | 1012.6 |
| 20260510113028 | 54 | 0 | 0.0 | 0.0 | 0.00 | 0.00 | 0.00 | 96 | 1012.6 |
| 20260510112527 | 54 | 171 | 0.0 | 0.0 | 0.00 | 0.00 | 0.00 | 97 | 1012.4 |
| 20260510112027 | 54 | 0 | 0.0 | 0.0 | 0.00 | 0.00 | 0.00 | 96 | 1012.3 |
| 20260510111527 | 53 | 0 | 0.0 | 1.0 | 0.00 | 0.00 | 0.00 | 96 | 1012.2 |
| 20260510111027 | 53 | 0 | 0.0 | 1.0 | 0.00 | 0.00 | 0.00 | 96 | 1012.1 |
| 20260510110528 | 53 | 49 | 0.0 | 1.0 | 0.00 | 0.00 | 0.00 | 96 | 1012.1 |
| 20260510110028 | 53 | 0 | 0.0 | 1.0 | 0.00 | 0.00 | 0.00 | 96 | 1012.1 |
| 20260510105513 | 53 | 55 | 0.0 | 1.0 | 0.00 | 0.00 | 0.00 | 96 | 1012.0 |
| 20260510105013 | 53 | 0 | 0.0 | 1.0 | 0.00 | 0.00 | 0.00 | 96 | 1011.9 |
| 20260510104458 | 53 | 67 | 0.0 | 1.0 | 0.00 | 0.00 | 0.00 | 96 | 1011.9 |
| 20260510104225 | 53 | 81 | 0.0 | 0.0 | 0.00 | 0.00 | 0.00 | 96 | 1011.9 |
| 20260510103458 | 53 | 0 | 0.0 | 0.0 | 0.00 | 0.00 | 0.00 | 96 | 1011.8 |
| 20260510102959 | 53 | 0 | 0.0 | 1.0 | 0.00 | 0.00 | 0.00 | 96 | 1011.8 |
| 20260510102458 | 54 | 0 | 0.0 | 1.0 | 0.00 | 0.00 | 0.00 | 96 | 1011.8 |
| 20260510101958 | 54 | 0 | 0.0 | 1.0 | 0.00 | 0.00 | 0.00 | 96 | 1011.7 |
| 20260510101729 | 54 | 47 | 0.0 | 1.0 | 0.00 | 0.00 | 0.00 | 96 | 1011.6 |
| 20260510100959 | 54 | 0 | 0.0 | 0.0 | 0.00 | 0.00 | 0.00 | 96 | 1011.6 |
| 20260510100458 | 54 | 0 | 0.0 | 0.0 | 0.00 | 0.00 | 0.00 | 96 | 1011.6 |
| 20260510095959 | 54 | 0 | 0.0 | 0.0 | 0.00 | 0.00 | 0.00 | 96 | 1011.4 |
| 20260510095459 | 55 | 0 | 0.0 | 0.0 | 0.00 | 0.00 | 0.00 | 96 | 1011.2 |
| 20260510094959 | 55 | 0 | 0.0 | 0.0 | 0.00 | 0.00 | 0.00 | 96 | 1011.1 |
| 20260510094459 | 55 | 0 | 0.0 | 0.0 | 0.00 | 0.00 | 0.00 | 96 | 1011.1 |
| 20260510093959 | 55 | 0 | 0.0 | 1.0 | 0.00 | 0.00 | 0.00 | 96 | 1011.0 |
| 20260510093443 | 55 | 0 | 0.0 | 1.0 | 0.00 | 0.00 | 0.00 | 96 | 1010.9 |
| 20260510092943 | 55 | 56 | 0.0 | 0.0 | 0.00 | 0.00 | 0.00 | 96 | 1010.9 |
| 20260510092443 | 55 | 0 | 0.0 | 0.0 | 0.00 | 0.00 | 0.00 | 95 | 1010.9 |
| 20260510091942 | 56 | 0 | 0.0 | 0.0 | 0.00 | 0.00 | 0.00 | 95 | 1011.0 |
| 20260510091658 | 56 | 0 | 0.0 | 0.0 | 0.00 | 0.00 | 0.00 | 96 | 1010.9 |
| 20260510091206 | 56 | 0 | 0.0 | 0.0 | 0.00 | 0.00 | 0.00 | 96 | 1010.8 |
| 20260510090443 | 56 | 0 | 0.0 | 0.0 | 0.00 | 0.00 | 0.00 | 96 | 1010.8 |
| 20260510085943 | 56 | 0 | 0.0 | 0.0 | 0.00 | 0.00 | 0.00 | 95 | 1010.8 |
| 20260510085443 | 56 | 0 | 0.0 | 0.0 | 0.00 | 0.00 | 0.00 | 95 | 1010.7 |
| 20260510084943 | 57 | 0 | 0.0 | 0.0 | 0.00 | 0.00 | 0.00 | 95 | 1010.6 |
| 20260510084443 | 57 | 0 | 0.0 | 1.0 | 0.00 | 0.00 | 0.00 | 95 | 1010.6 |
| 20260510083943 | 57 | 72 | 0.0 | 1.0 | 0.00 | 0.00 | 0.00 | 95 | 1010.6 |
| 20260510083701 | 57 | 0 | 0.0 | 0.0 | 0.00 | 0.00 | 0.00 | 95 | 1010.7 |
| 20260510082943 | 57 | 0 | 0.0 | 0.0 | 0.00 | 0.00 | 0.00 | 95 | 1010.7 |
| 20260510081929 | 58 | 0 | 0.0 | 1.0 | 0.00 | 0.00 | 0.00 | 95 | 1010.7 |
| 20260510081659 | 58 | 0 | 0.0 | 0.0 | 0.00 | 0.00 | 0.00 | 95 | 1010.7 |
| 20260510080930 | 58 | 0 | 0.0 | 0.0 | 0.00 | 0.00 | 0.00 | 95 | 1010.6 |
| 20260510080647 | 58 | 0 | 0.0 | 0.0 | 0.00 | 0.00 | 0.00 | 94 | 1010.6 |
| 20260510075930 | 58 | 0 | 0.0 | 1.0 | 0.00 | 0.00 | 0.00 | 94 | 1010.5 |
| 20260510075430 | 59 | 0 | 0.0 | 2.0 | 0.00 | 0.00 | 0.00 | 94 | 1010.5 |
| 20260510074930 | 59 | 0 | 0.0 | 2.0 | 0.00 | 0.00 | 0.00 | 94 | 1010.5 |
| 20260510074431 | 59 | 0 | 0.0 | 1.0 | 0.00 | 0.00 | 0.00 | 94 | 1010.5 |
| 20260510074149 | 59 | 0 | 0.0 | 1.0 | 0.00 | 0.00 | 0.00 | 94 | 1010.4 |
| 20260510073431 | 59 | 82 | 0.0 | 1.0 | 0.00 | 0.00 | 0.00 | 93 | 1010.3 |
| 20260510072931 | 60 | 0 | 0.0 | 0.0 | 0.00 | 0.00 | 0.00 | 93 | 1010.4 |
| 20260510072431 | 60 | 0 | 0.0 | 0.0 | 0.00 | 0.00 | 0.00 | 93 | 1010.3 |
| 20260510071931 | 60 | 0 | 0.0 | 0.0 | 0.00 | 0.00 | 0.00 | 92 | 1010.3 |
| 20260510071416 | 60 | 0 | 0.0 | 0.0 | 0.00 | 0.00 | 0.00 | 92 | 1010.3 |
| 20260510070916 | 60 | 0 | 0.0 | 0.0 | 0.00 | 0.00 | 0.00 | 92 | 1010.3 |
| 20260510070633 | 60 | 0 | 0.0 | 0.0 | 0.00 | 0.00 | 0.00 | 92 | 1010.4 |
| 20260510065916 | 60 | 0 | 0.0 | 0.0 | 0.00 | 0.00 | 0.00 | 92 | 1010.3 |
| 20260510064916 | 61 | 0 | 0.0 | 0.0 | 0.00 | 0.00 | 0.00 | 91 | 1010.3 |
| 20260510064416 | 61 | 0 | 0.0 | 0.0 | 0.00 | 0.00 | 0.00 | 91 | 1010.4 |
| 20260510063917 | 61 | 0 | 0.0 | 1.0 | 0.00 | 0.00 | 0.00 | 91 | 1010.3 |
| 20260510063634 | 61 | 0 | 0.0 | 1.0 | 0.00 | 0.00 | 0.00 | 91 | 1010.3 |
| 20260510062917 | 61 | 0 | 0.0 | 1.0 | 0.00 | 0.00 | 0.00 | 92 | 1010.3 |
| 20260510062417 | 61 | 0 | 0.0 | 0.0 | 0.00 | 0.00 | 0.00 | 91 | 1010.3 |
| 20260510061917 | 61 | 0 | 0.0 | 1.0 | 0.00 | 0.00 | 0.00 | 91 | 1010.4 |
| 20260510061417 | 61 | 0 | 0.0 | 1.0 | 0.00 | 0.00 | 0.00 | 91 | 1010.4 |
| 20260510060902 | 61 | 114 | 0.0 | 1.0 | 0.00 | 0.00 | 0.00 | 91 | 1010.5 |
| 20260510060402 | 61 | 0 | 0.0 | 1.0 | 0.00 | 0.00 | 0.00 | 90 | 1010.5 |
| 20260510060123 | 61 | 0 | 0.0 | 1.0 | 0.00 | 0.00 | 0.00 | 91 | 1010.6 |
| 20260510055346 | 60 | 0 | 0.0 | 1.0 | 0.00 | 0.00 | 0.00 | 91 | 1010.6 |
| 20260510054846 | 60 | 0 | 0.0 | 0.0 | 0.00 | 0.00 | 0.00 | 90 | 1010.5 |
| 20260510054602 | 60 | 0 | 0.0 | 0.0 | 0.00 | 0.00 | 0.00 | 90 | 1010.5 |
| 20260510054105 | 60 | 0 | 0.0 | 0.0 | 0.00 | 0.00 | 0.00 | 90 | 1010.6 |
| 20260510053346 | 60 | 0 | 0.0 | 0.0 | 0.00 | 0.00 | 0.00 | 90 | 1010.7 |
| 20260510052846 | 60 | 89 | 0.0 | 0.0 | 0.00 | 0.00 | 0.00 | 90 | 1010.7 |
| 20260510052346 | 60 | 0 | 0.0 | 1.0 | 0.00 | 0.00 | 0.00 | 90 | 1010.6 |
| 20260510052106 | 60 | 0 | 0.0 | 1.0 | 0.00 | 0.00 | 0.00 | 90 | 1010.6 |
| 20260510051603 | 60 | 0 | 0.0 | 1.0 | 0.00 | 0.00 | 0.00 | 90 | 1010.7 |
| 20260510051117 | 60 | 0 | 0.0 | 1.0 | 0.00 | 0.00 | 0.00 | 89 | 1010.6 |
| 20260510050346 | 61 | 0 | 0.0 | 0.0 | 0.00 | 0.00 | 0.00 | 88 | 1010.6 |
| 20260510045846 | 61 | 0 | 0.0 | 0.0 | 0.00 | 0.00 | 0.00 | 88 | 1010.7 |
| 20260510045346 | 61 | 0 | 0.0 | 0.0 | 0.00 | 0.00 | 0.00 | 88 | 1010.6 |
| 20260510044819 | 61 | 0 | 0.0 | 0.0 | 0.00 | 0.00 | 0.00 | 88 | 1010.6 |
| 20260510044303 | 61 | 0 | 0.0 | 0.0 | 0.00 | 0.00 | 0.00 | 88 | 1010.6 |
| 20260510044015 | 61 | 0 | 0.0 | 1.0 | 0.00 | 0.00 | 0.00 | 88 | 1010.7 |
| 20260510043246 | 61 | 53 | 0.0 | 1.0 | 0.00 | 0.00 | 0.00 | 87 | 1010.7 |
| 20260510042746 | 61 | 0 | 0.0 | 0.0 | 0.00 | 0.00 | 0.00 | 88 | 1010.7 |
| 20260510042247 | 61 | 0 | 0.0 | 0.0 | 0.00 | 0.00 | 0.00 | 87 | 1010.6 |
| 20260510042011 | 61 | 0 | 0.0 | 1.0 | 0.00 | 0.00 | 0.00 | 87 | 1010.6 |
| 20260510041510 | 61 | 44 | 0.0 | 1.0 | 0.00 | 0.00 | 0.00 | 87 | 1010.6 |
| 20260510040747 | 61 | 0 | 0.0 | 0.0 | 0.00 | 0.00 | 0.00 | 87 | 1010.5 |
| 20260510040247 | 61 | 0 | 0.0 | 1.0 | 0.00 | 0.00 | 0.00 | 86 | 1010.5 |
| 20260510035747 | 61 | 49 | 0.0 | 1.0 | 0.00 | 0.00 | 0.00 | 86 | 1010.5 |
| 20260510035248 | 62 | 0 | 0.0 | 1.0 | 0.00 | 0.00 | 0.00 | 86 | 1010.4 |
| 20260510034747 | 62 | 0 | 0.0 | 1.0 | 0.00 | 0.00 | 0.00 | 86 | 1010.4 |
| 20260510034248 | 62 | 0 | 0.0 | 1.0 | 0.00 | 0.00 | 0.00 | 85 | 1010.3 |
| 20260510033748 | 62 | 0 | 0.0 | 1.0 | 0.00 | 0.00 | 0.00 | 85 | 1010.3 |
| 20260510033247 | 62 | 0 | 0.0 | 1.0 | 0.00 | 0.00 | 0.00 | 85 | 1010.3 |
| 20260510032734 | 62 | 70 | 0.0 | 1.0 | 0.00 | 0.00 | 0.00 | 84 | 1010.3 |
| 20260510032235 | 62 | 0 | 0.0 | 1.0 | 0.00 | 0.00 | 0.00 | 84 | 1010.2 |
| 20260510031734 | 62 | 49 | 0.0 | 1.0 | 0.00 | 0.00 | 0.00 | 83 | 1010.2 |
| 20260510031234 | 63 | 0 | 0.0 | 0.0 | 0.00 | 0.00 | 0.00 | 83 | 1010.2 |
| 20260510030734 | 63 | 0 | 0.0 | 1.0 | 0.00 | 0.00 | 0.00 | 83 | 1010.2 |
| 20260510030234 | 63 | 0 | 0.0 | 1.0 | 0.00 | 0.00 | 0.00 | 82 | 1010.2 |
| 20260510030005 | 63 | 73 | 0.0 | 1.0 | 0.00 | 0.00 | 0.00 | 82 | 1010.1 |
| 20260510025220 | 63 | 41 | 0.0 | 1.0 | 0.00 | 0.00 | 0.00 | 82 | 1010.2 |
| 20260510024719 | 63 | 0 | 0.0 | 1.0 | 0.00 | 0.00 | 0.00 | 81 | 1010.1 |
| 20260510024220 | 63 | 20 | 0.0 | 1.0 | 0.00 | 0.00 | 0.00 | 81 | 1010.1 |
| 20260510023719 | 63 | 27 | 0.0 | 1.0 | 0.00 | 0.00 | 0.00 | 81 | 1010.0 |
| 20260510023219 | 63 | 351 | 0.0 | 1.0 | 0.00 | 0.00 | 0.00 | 81 | 1010.0 |
| 20260510022705 | 63 | 28 | 0.0 | 1.0 | 0.00 | 0.00 | 0.00 | 82 | 1010.0 |
| 20260510022430 | 63 | 0 | 0.0 | 1.0 | 0.00 | 0.00 | 0.00 | 82 | 1009.9 |
| 20260510021925 | 63 | 37 | 0.0 | 1.0 | 0.00 | 0.00 | 0.00 | 81 | 1009.9 |
| 20260510021430 | 63 | 0 | 0.0 | 1.0 | 0.00 | 0.00 | 0.00 | 81 | 1009.8 |
| 20260510020928 | 63 | 0 | 0.0 | 0.0 | 0.00 | 0.00 | 0.00 | 81 | 1009.7 |
| 20260510020205 | 64 | 0 | 0.0 | 0.0 | 0.00 | 0.00 | 0.00 | 81 | 1009.7 |
| 20260510015705 | 64 | 0 | 0.0 | 1.0 | 0.00 | 0.00 | 0.00 | 80 | 1009.6 |
| 20260510015205 | 64 | 0 | 0.0 | 1.0 | 0.00 | 0.00 | 0.00 | 80 | 1009.5 |
| 20260510014705 | 64 | 0 | 0.0 | 0.0 | 0.00 | 0.00 | 0.00 | 80 | 1009.4 |
| 20260510014422 | 64 | 0 | 0.0 | 0.0 | 0.00 | 0.00 | 0.00 | 80 | 1009.3 |
| 20260510013705 | 64 | 0 | 0.0 | 0.0 | 0.00 | 0.00 | 0.00 | 80 | 1009.4 |
| 20260510013424 | 64 | 0 | 0.0 | 0.0 | 0.00 | 0.00 | 0.00 | 79 | 1009.4 |
| 20260510012927 | 64 | 0 | 0.0 | 0.0 | 0.00 | 0.00 | 0.00 | 79 | 1009.2 |
| 20260510012206 | 65 | 0 | 0.0 | 0.0 | 0.00 | 0.00 | 0.00 | 79 | 1009.2 |
| 20260510011706 | 65 | 0 | 0.0 | 0.0 | 0.00 | 0.00 | 0.00 | 77 | 1009.3 |
| 20260510011150 | 65 | 0 | 0.0 | 0.0 | 0.00 | 0.00 | 0.00 | 77 | 1009.2 |
| 20260510010149 | 65 | 0 | 0.0 | 0.0 | 0.00 | 0.00 | 0.00 | 77 | 1009.0 |
| 20260510005650 | 66 | 0 | 0.0 | 0.0 | 0.00 | 0.00 | 0.00 | 77 | 1008.9 |
| 20260510004651 | 66 | 0 | 0.0 | 0.0 | 0.00 | 0.00 | 0.00 | 75 | 1008.9 |
| 20260510004150 | 66 | 0 | 0.0 | 0.0 | 0.00 | 0.00 | 0.00 | 75 | 1008.9 |
| 20260510003921 | 67 | 0 | 0.0 | 0.0 | 0.00 | 0.00 | 0.00 | 74 | 1008.8 |
| 20260510003150 | 67 | 0 | 0.0 | 0.0 | 0.00 | 0.00 | 0.00 | 74 | 1008.7 |
| 20260510002650 | 68 | 0 | 0.0 | 0.0 | 0.00 | 0.00 | 0.00 | 74 | 1008.7 |
| 20260510002150 | 68 | 0 | 0.0 | 0.0 | 0.00 | 0.00 | 0.00 | 74 | 1008.6 |
| 20260510001650 | 68 | 0 | 0.0 | 0.0 | 0.00 | 0.00 | 0.00 | 72 | 1008.6 |
| 20260510001150 | 69 | 0 | 0.0 | 0.0 | 0.00 | 0.00 | 0.00 | 70 | 1008.5 |
| 20260510000920 | 69 | 0 | 0.0 | 1.0 | 0.00 | 0.00 | 0.00 | 69 | 1008.4 |
| 20260510000150 | 69 | 0 | 0.0 | 1.0 | 0.00 | 0.00 | 0.00 | 68 | 1008.3 |
| 20260509235637 | 70 | 35 | 0.0 | 1.0 | 0.00 | 0.00 | 0.00 | 67 | 1008.3 |
| 20260509235121 | 70 | 0 | 0.0 | 0.0 | 0.00 | 0.00 | 0.00 | 66 | 1008.3 |
| 20260509234623 | 71 | 0 | 0.0 | 1.0 | 0.00 | 0.00 | 0.00 | 65 | 1008.2 |
| 20260509233623 | 72 | 138 | 0.0 | 1.0 | 0.00 | 0.00 | 0.00 | 64 | 1008.0 |
| 20260509233122 | 72 | 0 | 0.0 | 1.0 | 0.00 | 0.00 | 0.00 | 63 | 1008.0 |
| 20260509232853 | 72 | 143 | 0.0 | 1.0 | 0.00 | 0.00 | 0.00 | 64 | 1008.1 |
| 20260509232123 | 73 | 0 | 0.0 | 1.0 | 0.00 | 0.00 | 0.00 | 60 | 1008.1 |
| 20260509231622 | 73 | 0 | 0.0 | 1.0 | 0.00 | 0.00 | 0.00 | 60 | 1008.1 |
| 20260509231122 | 73 | 0 | 0.0 | 1.0 | 0.00 | 0.00 | 0.00 | 59 | 1008.1 |
| 20260509230622 | 73 | 0 | 0.0 | 2.0 | 0.00 | 0.00 | 0.00 | 59 | 1008.1 |
| 20260509230122 | 73 | 0 | 0.0 | 2.0 | 0.00 | 0.00 | 0.00 | 58 | 1008.1 |
| 20260509225623 | 73 | 0 | 0.0 | 2.0 | 0.00 | 0.00 | 0.00 | 57 | 1008.0 |
| 20260509225328 | 73 | 0 | 0.0 | 2.0 | 0.00 | 0.00 | 0.00 | 57 | 1007.9 |
| 20260509224552 | 73 | 0 | 0.0 | 1.0 | 0.00 | 0.00 | 0.00 | 58 | 1007.9 |
| 20260509224052 | 73 | 0 | 0.0 | 1.0 | 0.00 | 0.00 | 0.00 | 57 | 1007.9 |
| 20260509223552 | 73 | 0 | 0.0 | 1.0 | 0.00 | 0.00 | 0.00 | 56 | 1008.0 |
| 20260509223312 | 73 | 0 | 0.0 | 2.0 | 0.00 | 0.00 | 0.00 | 56 | 1008.0 |
| 20260509222552 | 73 | 0 | 0.0 | 2.0 | 0.00 | 0.00 | 0.00 | 55 | 1008.0 |
| 20260509221551 | 74 | 93 | 1.0 | 2.0 | 0.00 | 0.00 | 0.00 | 54 | 1007.9 |
| 20260509221052 | 74 | 0 | 0.0 | 1.0 | 0.00 | 0.00 | 0.00 | 53 | 1007.8 |
| 20260509220552 | 74 | 0 | 0.0 | 1.0 | 0.00 | 0.00 | 0.00 | 54 | 1007.8 |
| 20260509220052 | 74 | 0 | 0.0 | 1.0 | 0.00 | 0.00 | 0.00 | 52 | 1007.9 |
| 20260509215552 | 74 | 59 | 1.0 | 2.0 | 0.00 | 0.00 | 0.00 | 54 | 1007.9 |
| 20260509215316 | 74 | 68 | 0.0 | 2.0 | 0.00 | 0.00 | 0.00 | 53 | 1007.8 |
| 20260509214552 | 74 | 56 | 0.0 | 1.0 | 0.00 | 0.00 | 0.00 | 54 | 1007.8 |
| 20260509214052 | 75 | 36 | 1.0 | 3.0 | 0.00 | 0.00 | 0.00 | 53 | 1007.7 |
| 20260509213039 | 75 | 270 | 1.0 | 3.0 | 0.00 | 0.00 | 0.00 | 51 | 1007.6 |
| 20260509212539 | 75 | 116 | 2.0 | 4.0 | 0.00 | 0.00 | 0.00 | 52 | 1007.6 |
| 20260509212039 | 75 | 88 | 2.0 | 4.0 | 0.00 | 0.00 | 0.00 | 53 | 1007.6 |
| 20260509211540 | 75 | 135 | 1.0 | 3.0 | 0.00 | 0.00 | 0.00 | 53 | 1007.6 |
| 20260509211039 | 75 | 0 | 1.0 | 2.0 | 0.00 | 0.00 | 0.00 | 50 | 1007.4 |
| 20260509210539 | 75 | 173 | 2.0 | 3.0 | 0.00 | 0.00 | 0.00 | 49 | 1007.4 |
| 20260509210039 | 75 | 282 | 2.0 | 3.0 | 0.00 | 0.00 | 0.00 | 50 | 1007.6 |
| 20260509205539 | 75 | 17 | 1.0 | 3.0 | 0.00 | 0.00 | 0.00 | 51 | 1007.6 |
| 20260509205024 | 75 | 62 | 2.0 | 3.0 | 0.00 | 0.00 | 0.00 | 49 | 1007.6 |
| 20260509204524 | 75 | 48 | 2.0 | 3.0 | 0.00 | 0.00 | 0.00 | 51 | 1007.6 |
| 20260509204025 | 74 | 55 | 2.0 | 3.0 | 0.00 | 0.00 | 0.00 | 52 | 1007.5 |
| 20260509203525 | 74 | 105 | 1.0 | 2.0 | 0.00 | 0.00 | 0.00 | 54 | 1007.5 |
| 20260509203025 | 74 | 285 | 1.0 | 2.0 | 0.00 | 0.00 | 0.00 | 58 | 1007.5 |
| 20260509202525 | 74 | 39 | 1.0 | 2.0 | 0.00 | 0.00 | 0.00 | 56 | 1007.6 |
| 20260509202025 | 73 | 79 | 1.0 | 2.0 | 0.00 | 0.00 | 0.00 | 55 | 1007.6 |
| 20260509201525 | 73 | 75 | 0.0 | 1.0 | 0.00 | 0.00 | 0.00 | 57 | 1007.7 |
| 20260509201025 | 73 | 94 | 0.0 | 2.0 | 0.00 | 0.00 | 0.00 | 56 | 1007.7 |
| 20260509200525 | 73 | 0 | 1.0 | 2.0 | 0.00 | 0.00 | 0.00 | 55 | 1007.8 |
| 20260509200025 | 73 | 0 | 1.0 | 2.0 | 0.00 | 0.00 | 0.00 | 55 | 1007.8 |
| 20260509195026 | 73 | 105 | 1.0 | 3.0 | 0.00 | 0.00 | 0.00 | 55 | 1008.0 |
| 20260509194526 | 73 | 98 | 1.0 | 2.0 | 0.00 | 0.00 | 0.00 | 56 | 1008.0 |
| 20260509194026 | 73 | 21 | 0.0 | 2.0 | 0.00 | 0.00 | 0.00 | 56 | 1008.1 |
| 20260509193011 | 73 | 177 | 1.0 | 2.0 | 0.00 | 0.00 | 0.00 | 53 | 1008.2 |
| 20260509192511 | 73 | 14 | 1.0 | 3.0 | 0.00 | 0.00 | 0.00 | 54 | 1008.3 |
| 20260509192010 | 74 | 78 | 1.0 | 3.0 | 0.00 | 0.00 | 0.00 | 53 | 1008.4 |
| 20260509191511 | 74 | 71 | 2.0 | 4.0 | 0.00 | 0.00 | 0.00 | 53 | 1008.4 |
| 20260509191011 | 73 | 35 | 1.0 | 4.0 | 0.00 | 0.00 | 0.00 | 52 | 1008.4 |
| 20260509190456 | 73 | 29 | 1.0 | 2.0 | 0.00 | 0.00 | 0.00 | 56 | 1008.5 |
| 20260509185955 | 73 | 87 | 1.0 | 3.0 | 0.00 | 0.00 | 0.00 | 55 | 1008.5 |
| 20260509185722 | 73 | 15 | 1.0 | 3.0 | 0.00 | 0.00 | 0.00 | 54 | 1008.6 |
| 20260509184455 | 73 | 0 | 1.0 | 4.0 | 0.00 | 0.00 | 0.00 | 53 | 1008.7 |
| 20260509183956 | 73 | 357 | 1.0 | 2.0 | 0.00 | 0.00 | 0.00 | 52 | 1008.7 |
| 20260509183456 | 73 | 197 | 1.0 | 3.0 | 0.00 | 0.00 | 0.00 | 53 | 1008.8 |
| 20260509182956 | 74 | 45 | 2.0 | 4.0 | 0.00 | 0.00 | 0.00 | 50 | 1008.9 |
| 20260509182454 | 74 | 232 | 2.0 | 4.0 | 0.00 | 0.00 | 0.00 | 51 | 1008.9 |
| 20260509181955 | 74 | 63 | 1.0 | 4.0 | 0.00 | 0.00 | 0.00 | 50 | 1009.0 |
| 20260509181717 | 74 | 18 | 1.0 | 2.0 | 0.00 | 0.00 | 0.00 | 51 | 1008.9 |
| 20260509180955 | 74 | 96 | 1.0 | 2.0 | 0.00 | 0.00 | 0.00 | 52 | 1009.0 |
| 20260509180455 | 73 | 88 | 1.0 | 4.0 | 0.00 | 0.00 | 0.00 | 52 | 1009.0 |
| 20260509175956 | 73 | 27 | 1.0 | 4.0 | 0.00 | 0.00 | 0.00 | 51 | 1009.1 |
| 20260509175715 | 73 | 119 | 1.0 | 2.0 | 0.00 | 0.00 | 0.00 | 52 | 1009.2 |
| 20260509174942 | 72 | 280 | 1.0 | 4.0 | 0.00 | 0.00 | 0.00 | 55 | 1009.2 |
| 20260509174700 | 72 | 71 | 2.0 | 4.0 | 0.00 | 0.00 | 0.00 | 53 | 1009.3 |
| 20260509173942 | 72 | 274 | 2.0 | 4.0 | 0.00 | 0.00 | 0.00 | 53 | 1009.4 |
| 20260509173442 | 73 | 86 | 1.0 | 4.0 | 0.00 | 0.00 | 0.00 | 53 | 1009.3 |
| 20260509172942 | 73 | 240 | 1.0 | 3.0 | 0.00 | 0.00 | 0.00 | 53 | 1009.2 |
| 20260509172704 | 73 | 87 | 1.0 | 4.0 | 0.00 | 0.00 | 0.00 | 53 | 1009.2 |
| 20260509171942 | 73 | 347 | 2.0 | 6.0 | 0.00 | 0.00 | 0.00 | 52 | 1009.2 |
| 20260509171433 | 73 | 133 | 2.0 | 6.0 | 0.00 | 0.00 | 0.00 | 52 | 1009.3 |
| 20260509170928 | 72 | 6 | 2.0 | 4.0 | 0.00 | 0.00 | 0.00 | 52 | 1009.4 |
| 20260509170427 | 72 | 40 | 1.0 | 2.0 | 0.00 | 0.00 | 0.00 | 53 | 1009.4 |
| 20260509165928 | 71 | 92 | 1.0 | 2.0 | 0.00 | 0.00 | 0.00 | 56 | 1009.7 |
| 20260509165633 | 71 | 258 | 1.0 | 2.0 | 0.00 | 0.00 | 0.00 | 55 | 1009.8 |
| 20260509164642 | 72 | 269 | 1.0 | 4.0 | 0.00 | 0.00 | 0.00 | 55 | 1010.1 |
| 20260509163913 | 72 | 356 | 1.0 | 4.0 | 0.00 | 0.00 | 0.00 | 55 | 1010.1 |
| 20260509163413 | 72 | 236 | 1.0 | 4.0 | 0.00 | 0.00 | 0.00 | 53 | 1010.3 |
| 20260509162914 | 72 | 307 | 1.0 | 5.0 | 0.00 | 0.00 | 0.00 | 51 | 1010.1 |
| 20260509162635 | 72 | 333 | 1.0 | 5.0 | 0.00 | 0.00 | 0.00 | 54 | 1010.0 |
| 20260509162136 | 71 | 75 | 1.0 | 4.0 | 0.00 | 0.00 | 0.00 | 51 | 1010.0 |
| 20260509161414 | 71 | 299 | 2.0 | 4.0 | 0.00 | 0.00 | 0.00 | 52 | 1010.0 |
| 20260509160914 | 70 | 253 | 2.0 | 4.0 | 0.00 | 0.00 | 0.00 | 52 | 1010.0 |
| 20260509160358 | 70 | 93 | 2.0 | 4.0 | 0.00 | 0.00 | 0.00 | 53 | 1010.0 |
| 20260509155857 | 70 | 107 | 2.0 | 4.0 | 0.00 | 0.00 | 0.00 | 52 | 1010.0 |
| 20260509155357 | 70 | 237 | 1.0 | 3.0 | 0.00 | 0.00 | 0.00 | 57 | 1010.2 |
| 20260509154857 | 70 | 303 | 1.0 | 3.0 | 0.00 | 0.00 | 0.00 | 57 | 1010.2 |
| 20260509154356 | 69 | 309 | 1.0 | 3.0 | 0.00 | 0.00 | 0.00 | 61 | 1010.6 |
| 20260509154114 | 69 | 145 | 1.0 | 3.0 | 0.00 | 0.00 | 0.00 | 62 | 1010.6 |
| 20260509153357 | 68 | 0 | 1.0 | 3.0 | 0.00 | 0.00 | 0.00 | 63 | 1010.7 |
| 20260509152857 | 68 | 86 | 1.0 | 3.0 | 0.00 | 0.00 | 0.00 | 63 | 1010.7 |